Satellite: RS-30
Catalog number: 32953
Epoch time:      12271.83169720
Element set:     179
Inclination:      082.5005 deg
RA of node:       231.2990 deg
Eccentricity:    0.0020381
Arg of perigee:   083.0986 deg
Mean anomaly:     277.2416 deg
Mean motion:   12.43027797 rev/day
Decay rate:        1.0e-07 rev/day^2
Epoch rev:           19731
Checksum:              289

Satellite: PHARMSAT
Catalog number: 35002
Epoch time:      12226.86484473
Element set:      78
Inclination:      040.4341 deg
RA of node:       050.6671 deg
Eccentricity:    0.0012079
Arg of perigee:   300.9773 deg
Mean anomaly:     059.0492 deg
Mean motion:   16.39309245 rev/day
Decay rate:   7.728342e-02 rev/day^2
Epoch rev:           18355
Checksum:              302

Satellite: METEOR-M
Catalog number: 35865
Epoch time:      12271.74847681
Element set:     817
Inclination:      098.6426 deg
RA of node:       324.0905 deg
Eccentricity:    0.0003141
Arg of perigee:   104.4310 deg
Mean anomaly:     255.7213 deg
Mean motion:   14.21869747 rev/day
Decay rate:       -1.1e-07 rev/day^2
Epoch rev:           15717
Checksum:              290

Satellite: RS-38
Catalog number: 35869
Epoch time:      12271.68382926
Element set:     802
Inclination:      098.6383 deg
RA of node:       324.0054 deg
Eccentricity:    0.0005264
Arg of perigee:   108.1791 deg
Mean anomaly:     251.9975 deg
Mean motion:   14.22088279 rev/day
Decay rate:        2.0e-07 rev/day^2
Epoch rev:           15718
Checksum:              324

Satellite: JUGNU
Catalog number: 37839
Epoch time:      12271.84697633
Element set:     234
Inclination:      019.9591 deg
RA of node:       096.3049 deg
Eccentricity:    0.0020463
Arg of perigee:   274.8662 deg
Mean anomaly:     084.9304 deg
Mean motion:   14.12084536 rev/day
Decay rate:       6.20e-06 rev/day^2
Epoch rev:            4977
Checksum:              319

Satellite: SRMSAT
Catalog number: 37841
Epoch time:      12271.68754735
Element set:     237
Inclination:      019.9697 deg
RA of node:       104.1580 deg
Eccentricity:    0.0012708
Arg of perigee:   234.7161 deg
Mean anomaly:     125.2117 deg
Mean motion:   14.10163947 rev/day
Decay rate:       2.64e-06 rev/day^2
Epoch rev:            4967
Checksum:              297

Satellite: RAX-2
Catalog number: 37853
Epoch time:      12271.85085828
Element set:     297
Inclination:      101.7057 deg
RA of node:       358.8024 deg
Eccentricity:    0.0243847
Arg of perigee:   058.0063 deg
Mean anomaly:     304.4585 deg
Mean motion:   14.80886267 rev/day
Decay rate:      5.972e-05 rev/day^2
Epoch rev:            4958
Checksum:              341

Satellite: AUBIESAT
Catalog number: 37854
Epoch time:      12270.89872394
Element set:    0309
Inclination:      101.7076 deg
RA of node:       357.8032 deg
Eccentricity:    0.0244701
Arg of perigee:   060.1861 deg
Mean anomaly:     302.3428 deg
Mean motion:   14.81328491 rev/day
Decay rate:      5.796e-05 rev/day^2
Epoch rev:           04944
Checksum:              310

Satellite: HRBE
Catalog number: 37855
Epoch time:      12270.85605828
Element set:    0297
Inclination:      101.7090 deg
RA of node:       357.6618 deg
Eccentricity:    0.0245095
Arg of perigee:   060.1561 deg
Mean anomaly:     302.3759 deg
Mean motion:   14.81141503 rev/day
Decay rate:      5.620e-05 rev/day^2
Epoch rev:           04943
Checksum:              296

Satellite: RS-39
Catalog number: 38051
Epoch time:      12271.87262909
Element set:     740
Inclination:      051.6390 deg
RA of node:       029.9366 deg
Eccentricity:    0.0013581
Arg of perigee:   046.2558 deg
Mean anomaly:     047.6193 deg
Mean motion:   15.25977376 rev/day
Decay rate:     1.1944e-04 rev/day^2
Epoch rev:            3764
Checksum:              332

Satellite: E-STAR
Catalog number: 38079
Epoch time:      12271.80504012
Element set:     534
Inclination:      069.4754 deg
RA of node:       080.0463 deg
Eccentricity:    0.0710948
Arg of perigee:   117.9298 deg
Mean anomaly:     249.6285 deg
Mean motion:   14.21997171 rev/day
Decay rate:     7.3183e-04 rev/day^2
Epoch rev:            3213
Checksum:              311

Satellite: GOLIAT
Catalog number: 38085
Epoch time:      12271.66089675
Element set:     502
Inclination:      069.4795 deg
RA of node:       081.0245 deg
Eccentricity:    0.0717120
Arg of perigee:   118.5139 deg
Mean anomaly:     249.0888 deg
Mean motion:   14.20802849 rev/day
Decay rate:     6.9176e-04 rev/day^2
Epoch rev:            3209
Checksum:              324

Satellite: HORYU-2
Catalog number: 38340
Epoch time:      12271.87588310
Element set:     168
Inclination:      098.1823 deg
RA of node:       211.8810 deg
Eccentricity:    0.0013314
Arg of perigee:   009.7931 deg
Mean anomaly:     350.3597 deg
Mean motion:   14.70203550 rev/day
Decay rate:      1.976e-05 rev/day^2
Epoch rev:            1956
Checksum:              293

Satellite: RS-40
Catalog number: 38736
Epoch time:      12270.67235512
Element set:    0066
Inclination:      082.4798 deg
RA of node:       319.4339 deg
Eccentricity:    0.0018758
Arg of perigee:   179.0918 deg
Mean anomaly:     181.0198 deg
Mean motion:   12.42646652 rev/day
Decay rate:        1.0e-07 rev/day^2
Epoch rev:           00751
Checksum:              311

